Location: Carthage
(33.8834°N, 106.6595°W)
Time: 09:55:32
(UTC+00:00)

Cosmos 2344 - Pass Details

Date: 13 February 2026
Orbit: 1195 x 3047 km, 63.3° (Epoch: 11 March)

Event Time Altitude Azimuth Distance (km) Brightness Sun altitude
Exits shadow 12:10:38 14° 321° (NW) 3,306 5.4 -21.8°
Maximum altitude 12:18:30 66° 243° (WSW) 1,948 4.2 -20.2°
Drops below altitude 10° 12:30:55 10° 165° (SSE) 4,960 6.9 -17.6°
Sets 12:35:09 0° 163° (SSE) 6,214 7.5 -16.7°
